| time (UTC) | temp C | wind direction | speed KPH | gust KPH | rain 1hr cm | rain 24hr cm | rain mn cm | humidity % | barometer mb |
| 20260509183009 | 7 | 187 | 0.0 | 0.0 | 0.23 | 0.33 | 0.33 | 89 | 1014.1 |
| 20260509181549 | 7 | 146 | 0.0 | 0.0 | 0.20 | 0.28 | 0.28 | 89 | 1014.1 |
| 20260509180023 | 7 | 215 | 0.0 | 3.2 | 0.20 | 0.23 | 0.23 | 87 | 1014.2 |
| 20260509174601 | 7 | 186 | 0.0 | 6.4 | 0.15 | 0.15 | 0.15 | 86 | 1014.0 |
| 20260509173044 | 7 | 173 | 0.0 | 3.2 | 0.10 | 0.10 | 0.10 | 84 | 1014.1 |
| 20260509171517 | 8 | 190 | 0.0 | 9.7 | 0.08 | 0.08 | 0.08 | 82 | 1013.9 |
| 20260509170053 | 8 | 156 | 0.0 | 6.4 | 0.03 | 0.03 | 0.03 | 80 | 1014.0 |
| 20260509164539 | 9 | 165 | 0.0 | 4.8 | 0.00 | 0.00 | 0.00 | 76 | 1014.1 |
| 20260509163027 | 9 | 154 | 1.6 | 11.3 | 0.00 | 0.00 | 0.00 | 75 | 1014.0 |
| 20260509161604 | 9 | 189 | 1.6 | 11.3 | 0.00 | 0.00 | 0.00 | 72 | 1014.2 |
| 20260509160038 | 10 | 234 | 3.2 | 9.7 | 0.00 | 0.00 | 0.00 | 66 | 1014.1 |
| 20260509154516 | 10 | 232 | 0.0 | 11.3 | 0.00 | 0.00 | 0.00 | 65 | 1014.1 |
| 20260509153057 | 10 | 223 | 1.6 | 11.3 | 0.00 | 0.00 | 0.00 | 58 | 1014.2 |
| 20260509151536 | 11 | 211 | 1.6 | 9.7 | 0.00 | 0.00 | 0.00 | 55 | 1014.0 |
| 20260509150021 | 11 | 119 | 0.0 | 8.0 | 0.00 | 0.00 | 0.00 | 56 | 1013.7 |
| 20260509144549 | 12 | 176 | 1.6 | 8.0 | 0.00 | 0.00 | 0.00 | 52 | 1013.4 |
| 20260509143025 | 11 | 107 | 1.6 | 9.7 | 0.00 | 0.00 | 0.00 | 55 | 1013.2 |
| 20260509141514 | 11 | 187 | 4.8 | 11.3 | 0.00 | 0.00 | 0.00 | 54 | 1013.4 |
| 20260509134541 | 12 | 224 | 1.6 | 9.7 | 0.00 | 0.00 | 0.00 | 50 | 1013.2 |
| 20260509133014 | 11 | 186 | 1.6 | 6.4 | 0.00 | 0.00 | 0.00 | 50 | 1013.4 |
| 20260509131553 | 11 | 145 | 0.0 | 8.0 | 0.00 | 0.00 | 0.00 | 48 | 1013.6 |
| 20260509130024 | 11 | 203 | 0.0 | 4.8 | 0.00 | 0.00 | 0.00 | 48 | 1013.5 |
| 20260509124559 | 10 | 145 | 0.0 | 6.4 | 0.00 | 0.00 | 0.00 | 51 | 1013.7 |
| 20260509123039 | 9 | 175 | 0.0 | 4.8 | 0.00 | 0.00 | 0.00 | 57 | 1013.8 |
| 20260509121602 | 8 | 141 | 0.0 | 3.2 | 0.00 | 0.00 | 0.00 | 58 | 1013.8 |
| 20260509120036 | 7 | 177 | 0.0 | 0.0 | 0.00 | 0.00 | 0.00 | 65 | 1013.7 |
| 20260509114511 | 5 | 114 | 0.0 | 0.0 | 0.00 | 0.00 | 0.00 | 69 | 1013.6 |
| 20260509113047 | 4 | 114 | 0.0 | 0.0 | 0.00 | 0.00 | 0.00 | 80 | 1013.7 |
| 20260509111523 | 3 | 114 | 0.0 | 0.0 | 0.00 | 0.00 | 0.00 | 86 | 1013.8 |
| 20260509110002 | 2 | 114 | 0.0 | 0.0 | 0.00 | 0.00 | 0.00 | 88 | 1013.7 |
| 20260509104540 | 2 | 114 | 0.0 | 0.0 | 0.00 | 0.00 | 0.00 | 89 | 1013.7 |
| 20260509103016 | 1 | 114 | 0.0 | 0.0 | 0.00 | 0.00 | 0.00 | 88 | 1013.4 |
| 20260509101559 | 1 | 114 | 0.0 | 0.0 | 0.00 | 0.00 | 0.00 | 87 | 1013.1 |
| 20260509100033 | 1 | 114 | 0.0 | 0.0 | 0.00 | 0.00 | 0.00 | 86 | 1013.0 |
| 20260509094520 | 1 | 114 | 0.0 | 0.0 | 0.00 | 0.00 | 0.00 | 86 | 1012.8 |
| 20260509093100 | 1 | 114 | 0.0 | 0.0 | 0.00 | 0.00 | 0.00 | 85 | 1012.6 |
| 20260509091537 | 1 | 114 | 0.0 | 0.0 | 0.00 | 0.00 | 0.00 | 84 | 1012.2 |
| 20260509090012 | 2 | 114 | 0.0 | 0.0 | 0.00 | 0.00 | 0.00 | 84 | 1012.3 |
| 20260509084551 | 2 | 114 | 0.0 | 0.0 | 0.00 | 0.00 | 0.00 | 83 | 1012.3 |
| 20260509083024 | 2 | 114 | 0.0 | 0.0 | 0.00 | 0.00 | 0.00 | 82 | 1012.4 |
| 20260509081600 | 2 | 114 | 0.0 | 0.0 | 0.00 | 0.00 | 0.00 | 80 | 1012.4 |
| 20260509080045 | 3 | 114 | 0.0 | 0.0 | 0.00 | 0.00 | 0.00 | 79 | 1012.5 |
| 20260509074534 | 3 | 114 | 0.0 | 0.0 | 0.00 | 0.00 | 0.00 | 79 | 1012.4 |
| 20260509073010 | 3 | 114 | 0.0 | 0.0 | 0.00 | 0.00 | 0.00 | 79 | 1012.3 |
| 20260509071601 | 4 | 114 | 0.0 | 0.0 | 0.00 | 0.00 | 0.00 | 79 | 1012.4 |
| 20260509070026 | 4 | 114 | 0.0 | 0.0 | 0.00 | 0.00 | 0.00 | 78 | 1012.2 |
| 20260509064502 | 4 | 114 | 0.0 | 0.0 | 0.00 | 0.00 | 0.00 | 77 | 1012.2 |
| 20260509063039 | 4 | 114 | 0.0 | 0.0 | 0.00 | 0.00 | 0.00 | 77 | 1012.1 |
| 20260509061512 | 5 | 114 | 0.0 | 0.0 | 0.00 | 0.00 | 0.00 | 75 | 1012.0 |
| 20260509060051 | 5 | 114 | 0.0 | 0.0 | 0.00 | 0.00 | 0.00 | 75 | 1012.0 |
| 20260509054551 | 5 | 114 | 0.0 | 0.0 | 0.00 | 0.00 | 0.00 | 74 | 1011.9 |
| 20260509053026 | 5 | 114 | 0.0 | 0.0 | 0.00 | 0.00 | 0.00 | 73 | 1011.8 |
| 20260509051517 | 5 | 114 | 0.0 | 3.2 | 0.00 | 0.00 | 0.00 | 74 | 1011.9 |
| 20260509050057 | 5 | 22 | 0.0 | 0.0 | 0.00 | 0.00 | 0.00 | 71 | 1011.8 |
| 20260509044532 | 5 | 22 | 0.0 | 0.0 | 0.00 | 0.00 | 0.00 | 70 | 1011.8 |
| 20260509043009 | 5 | 22 | 0.0 | 0.0 | 0.00 | 0.00 | 0.00 | 70 | 1011.9 |
| 20260509041545 | 5 | 22 | 0.0 | 0.0 | 0.00 | 0.00 | 0.00 | 71 | 1011.7 |
| 20260509040019 | 5 | 22 | 0.0 | 0.0 | 0.00 | 0.00 | 0.00 | 69 | 1011.4 |
| 20260509034556 | 5 | 22 | 0.0 | 0.0 | 0.00 | 0.00 | 0.00 | 69 | 1011.3 |
| 20260509033041 | 5 | 22 | 0.0 | 0.0 | 0.00 | 0.00 | 0.00 | 69 | 1011.2 |
| 20260509031528 | 5 | 22 | 0.0 | 0.0 | 0.00 | 0.00 | 0.00 | 69 | 1011.0 |
| 20260509030054 | 5 | 22 | 0.0 | 0.0 | 0.00 | 0.00 | 0.00 | 69 | 1010.9 |
| 20260509024535 | 5 | 22 | 0.0 | 0.0 | 0.00 | 0.00 | 0.00 | 69 | 1010.8 |
| 20260509023007 | 5 | 22 | 0.0 | 0.0 | 0.00 | 0.00 | 0.00 | 67 | 1010.7 |
| 20260509021541 | 5 | 22 | 0.0 | 0.0 | 0.00 | 0.00 | 0.00 | 66 | 1010.6 |
| 20260509020024 | 5 | 22 | 0.0 | 0.0 | 0.00 | 0.00 | 0.00 | 64 | 1010.3 |
| 20260509014602 | 5 | 22 | 0.0 | 0.0 | 0.00 | 0.00 | 0.00 | 62 | 1010.1 |
| 20260509013040 | 6 | 22 | 0.0 | 0.0 | 0.00 | 0.00 | 0.00 | 60 | 1009.9 |
| 20260509011512 | 6 | 22 | 0.0 | 0.0 | 0.00 | 0.00 | 0.00 | 58 | 1009.7 |
| 20260509010050 | 7 | 22 | 0.0 | 0.0 | 0.00 | 0.00 | 0.00 | 56 | 1009.4 |
| 20260509004530 | 7 | 22 | 0.0 | 0.0 | 0.00 | 0.00 | 0.00 | 54 | 1009.1 |
| 20260509003010 | 8 | 22 | 0.0 | 0.0 | 0.00 | 0.00 | 0.00 | 51 | 1008.8 |
| 20260509001547 | 9 | 22 | 0.0 | 0.0 | 0.00 | 0.00 | 0.00 | 48 | 1008.6 |
| 20260509000036 | 10 | 22 | 0.0 | 0.0 | 0.00 | 0.00 | 0.00 | 44 | 1008.5 |
| 20260508234512 | 10 | 22 | 0.0 | 0.0 | 0.00 | 0.00 | 0.00 | 41 | 1008.3 |
| 20260508233053 | 11 | 9 | 0.0 | 1.6 | 0.00 | 0.00 | 0.00 | 39 | 1008.1 |
| 20260508231528 | 11 | 336 | 0.0 | 4.8 | 0.00 | 0.00 | 0.00 | 37 | 1008.1 |
| 20260508230005 | 12 | 319 | 0.0 | 4.8 | 0.00 | 0.00 | 0.00 | 36 | 1007.9 |
| 20260508224545 | 12 | 330 | 0.0 | 12.9 | 0.00 | 0.00 | 0.00 | 36 | 1007.7 |
| 20260508223024 | 12 | 111 | 1.6 | 14.5 | 0.00 | 0.00 | 0.00 | 36 | 1007.6 |
| 20260508221600 | 12 | 292 | 0.0 | 4.8 | 0.00 | 0.00 | 0.00 | 37 | 1007.6 |
| 20260508220038 | 13 | 310 | 4.8 | 16.1 | 0.00 | 0.00 | 0.00 | 35 | 1007.4 |
| 20260508214511 | 13 | 316 | 0.0 | 9.7 | 0.00 | 0.00 | 0.00 | 37 | 1007.3 |
| 20260508213100 | 13 | 283 | 3.2 | 12.9 | 0.00 | 0.00 | 0.00 | 36 | 1007.4 |
| 20260508211532 | 14 | 321 | 4.8 | 20.9 | 0.00 | 0.00 | 0.00 | 33 | 1007.1 |
| 20260508210005 | 13 | 233 | 4.8 | 24.1 | 0.00 | 0.00 | 0.00 | 34 | 1006.9 |
| 20260508204544 | 14 | 300 | 3.2 | 19.3 | 0.00 | 0.00 | 0.00 | 34 | 1006.8 |
| 20260508203034 | 13 | 222 | 6.4 | 17.7 | 0.00 | 0.00 | 0.00 | 37 | 1006.7 |
| 20260508201519 | 12 | 109 | 3.2 | 22.5 | 0.00 | 0.00 | 0.00 | 36 | 1006.7 |
| 20260508200124 | 12 | 302 | 8.0 | 19.3 | 0.00 | 0.00 | 0.00 | 36 | 1006.6 |
| 20260508194534 | 13 | 263 | 3.2 | 14.5 | 0.00 | 0.00 | 0.00 | 36 | 1006.3 |
| 20260508193012 | 13 | 317 | 4.8 | 14.5 | 0.00 | 0.00 | 0.00 | 35 | 1006.1 |
| 20260508191547 | 13 | 18 | 6.4 | 19.3 | 0.00 | 0.00 | 0.00 | 34 | 1005.9 |
| 20260508190032 | 13 | 279 | 4.8 | 16.1 | 0.00 | 0.00 | 0.00 | 32 | 1006.0 |
| 20260508184513 | 13 | 267 | 1.6 | 12.9 | 0.00 | 0.00 | 0.00 | 34 | 1005.7 |
| 20260508183053 | 13 | 293 | 1.6 | 19.3 | 0.00 | 0.00 | 0.00 | 31 | 1005.8 |